#timestamp,LO_Frequency,Hit,StdDev 
1652256015.6,286047002.1,N
1652256035.4,286047000.4,N
1652256055.3,286047003.0,N
1652256075.1,286047003.6,N
1652256095.8,286047004.1,N
1652256115.7,286047006.8,N
1652256135.5,286047010.0,N
1652256155.4,286047010.4,N
1652256175.2,286047011.5,N
1652256195.0,286047007.0,N
1652256195.9,286047007.0,N
1652256215.8,286047009.3,N
1652256235.6,286047017.2,Y
1652256255.4,286047012.0,P
1652256275.3,286047008.8,N
1652256295.1,286047007.7,N
1652256315.9,286047007.3,N
1652256335.7,286047002.7,N
1652256355.5,286047004.0,N
1652256375.4,286047002.3,N
1652256395.2,286046998.2,N
1652256415.0,286046993.8,N
1652256415.9,286046993.8,N
1652256435.8,286046994.3,N
1652256455.6,286046996.1,N
1652256475.5,286046996.2,N
1652256495.3,286046996.9,N
1652256515.1,286046993.7,N
1652256535.9,286046995.1,N
1652256555.7,286046997.5,N
1652256575.5,286046994.6,N
1652256595.4,286046993.0,N
1652256615.2,286046990.5,N
1652256635.1,286046992.8,N
1652256636.0,286046992.8,N
1652256655.8,286046994.2,N
1652256675.6,286047001.1,N
1652256695.5,286047001.4,N
1652256715.3,286046998.8,N
1652256735.1,286046999.6,N
1652256755.9,286047001.1,N
1652256775.7,286047002.3,N
1652256795.6,286047001.6,N
1652256815.4,286047003.3,N
1652256835.2,286047001.5,N
1652256855.1,286047002.9,N
1652256856.0,286047002.9,N
1652256875.8,286047008.9,N
1652256895.6,286047003.8,N
1652256915.5,286046999.7,N
1652256935.3,286047001.8,N
1652256955.2,286047002.5,N
1652256975.9,286046998.6,N
1652256995.7,286047000.1,N
1652257015.6,286047002.2,N
1652257035.4,286047000.4,N
1652257055.2,286046997.0,N
1652257075.1,286046995.3,N
1652257076.0,286046995.3,N
1652257095.8,286046997.1,N
1652257115.7,286046995.1,N
1652257135.5,286046995.5,N
1652257155.3,286046997.5,N
1652257175.2,286046997.2,N
1652257195.0,286046993.5,N
1652257195.9,286046993.5,N
1652257215.7,286046990.9,N
1652257235.6,286046992.5,N
1652257255.4,286046990.8,N
1652257275.3,286046992.3,N
1652257295.1,286046995.8,N
1652257296.0,286046995.8,N
1652257315.8,286046994.8,N
1652257335.7,286046990.6,N
1652257355.5,286046993.1,N
1652257375.3,286046996.1,N
1652257395.2,286046994.7,N
1652257415.0,286046994.8,N
1652257415.9,286046994.8,N
1652257435.8,286046992.2,N
1652257455.6,286046990.8,N
1652257475.4,286046992.1,N
1652257495.3,286046997.7,N
1652257515.1,286047002.4,N
1652257535.8,286046997.3,N
1652257555.7,286046994.3,N
1652257575.5,286047000.4,N
1652257595.4,286047001.6,N
1652257615.2,286047001.2,N
1652257635.0,286046998.2,N
1652257635.9,286046998.2,N
1652257655.8,286046999.3,N
1652257675.6,286047007.3,N
1652257695.4,286047013.3,Y
1652257715.3,286047013.3,P
1652257735.1,286047008.3,N
1652257755.9,286047006.5,N
1652257775.7,286047003.3,N
1652257795.5,286047001.3,N
1652257815.4,286047000.4,N
1652257835.2,286047000.5,N
1652257855.0,286047000.1,N
1652257855.9,286047000.1,N
1652257875.8,286047001.9,N
1652257895.6,286047001.8,N
1652257915.4,286047001.0,N
1652257935.3,286046998.7,N
1652257955.1,286046999.4,N
1652257975.9,286046994.1,N
1652257995.7,286046992.8,N
1652258015.5,286046994.5,N
1652258035.4,286046993.1,N
1652258055.2,286046988.5,N
1652258075.0,286046990.0,N
1652258075.9,286046990.0,N
1652258095.8,286046991.2,N
1652258115.6,286046991.0,N
1652258135.5,286046990.9,N
1652258155.3,286046993.3,N
1652258175.1,286046997.2,N
1652258195.9,286046995.1,N
1652258215.7,286047000.7,N
1652258235.5,286047001.0,N
1652258255.4,286047000.0,N
1652258275.2,286047000.0,N
1652258295.1,286046999.9,N
1652258296.0,286046999.9,N
1652258315.8,286046997.2,N
1652258335.6,286046993.9,N
1652258355.5,286046993.7,N
1652258375.3,286046998.7,N
1652258395.1,286046998.1,N
1652258415.9,286047004.2,N
1652258435.7,286047003.5,N
1652258455.6,286047000.0,N
1652258475.4,286046999.2,N
1652258495.2,286046996.2,N
1652258515.1,286046990.5,N
1652258516.0,286046990.5,N
1652258535.8,286046985.3,Y
1652258555.6,286046993.3,P
1652258575.5,286046990.3,P
1652258595.3,286046993.8,N
1652258615.2,286046996.8,N
1652258635.9,286047000.8,N
1652258655.7,286046999.3,N
1652258675.6,286046995.1,N
1652258695.4,286046998.1,N
1652258715.2,286046998.4,N
1652258735.1,286047001.0,N
1652258736.0,286047001.0,N
1652258755.8,286046998.7,N
1652258775.7,286046995.7,N
1652258795.5,286046992.6,N
1652258815.3,286046988.7,Y
1652258835.2,286046993.2,P
1652258855.9,286046996.4,N
1652258875.7,286046998.8,N
1652258895.6,286046997.7,N
1652258915.4,286046995.1,N
1652258935.3,286046993.9,Y
1652258955.1,286046998.2,P
1652258956.0,286046998.2,N
1652258975.8,286047000.3,N
1652258995.7,286046997.0,N
1652259015.5,286046997.1,N
1652259035.3,286046997.3,N
1652259055.2,286046995.8,Y
1652259075.0,286046998.3,P
1652259075.9,286046998.3,P
1652259095.8,286047001.2,P
1652259115.6,286046998.3,N
1652259135.4,286046997.0,N
1652259155.3,286046996.5,N
1652259175.1,286047000.2,N
1652259195.8,286046998.7,N
1652259215.7,286047000.0,N
1652259235.5,286046999.2,N
1652259255.4,286046996.0,Y
1652259275.2,286046996.8,P
1652259295.0,286046995.6,P
1652259295.9,286046995.6,P
1652259315.8,286046995.5,Y
1652259335.6,286046998.5,P
1652259355.4,286046999.8,N
1652259375.3,286047000.3,N
1652259395.1,286046998.7,N
1652259415.9,286046996.7,N
1652259435.7,286046997.5,N
1652259455.5,286046994.8,Y
1652259475.4,286046997.7,P
1652259495.2,286046997.3,P
1652259515.0,286046996.9,P
1652259515.9,286046996.9,Y
1652259535.8,286046998.6,P
1652259555.6,286046998.2,P
1652259575.5,286046999.3,N
1652259595.3,286047001.2,N
